Regional Weather Roundup
Issued by NWS Sioux Falls, SD

Home | Current Version | Previous Version | Graphics & Text | Print | Product List | Glossary On
Versions: 1 2 3 4 5 6 7 8 9 10 11 12 13 14 15 16 17 18 19 20 21 22 23 24 25 26 27 28 29 30 31 32 33 34 35 36 37 38 39 40 41 42 43 44 45 46 47 48 49 50
000
ASUS43 KFSD 300410
RWRFSD

WEATHER ROUNDUP FOR SE SOUTH DAKOTA/SW MINNESOTA/NW IOWA
NATIONAL WEATHER SERVICE SIOUX FALLS SD
1100 PM CDT TUE JUL 29 2014

NOTE: "FAIR" INDICATES FEW OR NO CLOUDS BELOW 12,000 FEET WITH NO
SIGNIFICANT WEATHER AND OR OBSTRUCTIONS TO VISIBILITY.


SDZ038>040-050-052>070-300500-
SOUTHEAST SOUTH DAKOTA

CITY           SKY/WX    TMP DP  RH WIND       PRES   REMARKS
CHAMBERLAIN    PTCLDY    65  52  62 E3        30.15R
HURON          CLEAR     60  54  80 CALM      30.13R
MADISON        FAIR      57  57 100 NW3       30.15R
MITCHELL       CLEAR     65  54  67 CALM      30.14R
SIOUX FALLS    CLEAR     61  54  77 CALM      30.14R
WINNER         FAIR      70  50  49 S5        30.16R
YANKTON        CLEAR     64  55  72 CALM      30.14S
$$

MNZ071-072-080-081-089-090-097-098-300500-
SOUTHWEST MINNESOTA

CITY           SKY/WX    TMP DP  RH WIND       PRES   REMARKS
FAIRMONT       CLEAR     63  54  72 NW3       30.11S
JACKSON        CLEAR     57  54  88 NW5       30.13R
LUVERNE        CLEAR     61  54  77 CALM      30.14R
MARSHALL       CLEAR     59  52  77 W6        30.11S
MONTEVIDEO     CLEAR     64  55  72 NW5       30.12R
PIPESTONE      CLEAR     63  55  77 CALM      30.14S
REDWOOD FALLS  CLEAR     63  55  75 W7        30.10R
TRACY          CLEAR     62  55  75 W3        30.13S
WINDOM         CLEAR     61  55  82 CALM      30.13R
WORTHINGTON    PTCLDY    59  54  82 W3        30.15R
$$

IAZ001>003-012>014-020>022-031-032-NEZ013-014-SDZ071-300500-
NORTHWEST IOWA

CITY           SKY/WX    TMP DP  RH WIND       PRES   REMARKS
CHEROKEE       CLEAR     57  55  94 CALM      30.13S
DENISON        CLEAR     57  57 100 CALM      30.12S
ESTHERVILLE    CLEAR     58  55  90 NW7       30.12R
LE MARS        CLEAR     57  55  94 CALM      30.14S
ORANGE CITY    CLEAR     63  54  72 CALM      30.14S
SHELDON        CLEAR     57  54  88 CALM      30.13R
SIOUX CITY     CLEAR     59  55  87 CALM      30.14R
SPENCER        CLEAR     57  55  93 W6        30.13R
STORM LAKE     CLEAR     59  57  94 W7        30.14S
$$

ABBREVIATIONS USED IN REMARKS
   TC - TEMPERATURE IN CELSIUS
  WCI - WIND CHILL INDEX
   HX - HEAT INDEX
  VSB - VISIBILITY




USA.gov is the U.S. government's official web portal to all federal, state and local government web resources and services.